Time,TemperatureF,DewpointF,PressureIn,WindDirection,WindDirectionDegrees,WindSpeedMPH,WindSpeedGustMPH,Humidity,HourlyPrecipIn,Conditions,Clouds,dailyrainin,SoftwareType,DateUTC
2013-02-12 00:01:00,38.0,37.0,29.57,WSW,250,6.0,12.0,96,0.00,,,0.48,,2013-02-12 05:01:00,
2013-02-12 00:11:00,38.0,37.0,29.56,West,280,3.0,11.0,96,0.00,,,0.48,,2013-02-12 05:11:00,
2013-02-12 00:21:00,38.0,37.0,29.56,West,280,3.0,11.0,96,0.00,,,0.48,,2013-02-12 05:21:00,
2013-02-12 00:32:00,37.0,36.0,29.56,West,268,4.0,9.0,95,0.00,,,0.48,,2013-02-12 05:32:00,
2013-02-12 00:42:00,37.0,36.0,29.56,West,268,4.0,9.0,95,0.00,,,0.48,,2013-02-12 05:42:00,
2013-02-12 00:52:00,37.0,36.0,29.55,NW,308,7.0,10.0,95,0.00,,,0.48,,2013-02-12 05:52:00,
2013-02-12 01:02:00,37.0,36.0,29.54,WNW,300,4.0,8.0,96,0.00,,,0.48,,2013-02-12 06:02:00,
2013-02-12 01:12:00,37.0,36.0,29.54,West,269,4.0,7.0,96,0.00,,,0.48,,2013-02-12 06:12:00,
2013-02-12 01:22:00,37.0,36.0,29.54,West,269,4.0,7.0,96,0.00,,,0.48,,2013-02-12 06:22:00,
2013-02-12 01:32:00,36.0,35.0,29.54,WNW,284,2.0,5.0,95,0.00,,,0.48,,2013-02-12 06:32:00,
2013-02-12 01:42:00,36.0,35.0,29.54,West,259,5.0,7.0,95,0.00,,,0.48,,2013-02-12 06:42:00,
2013-02-12 01:52:00,36.0,35.0,29.54,West,259,5.0,7.0,95,0.00,,,0.48,,2013-02-12 06:52:00,
2013-02-12 02:02:00,36.0,35.0,29.53,West,275,5.0,8.0,95,0.00,,,0.48,,2013-02-12 07:02:00,
2013-02-12 02:11:00,36.0,35.0,29.53,West,275,5.0,8.0,95,0.00,,,0.48,,2013-02-12 07:11:00,
2013-02-12 02:21:00,36.0,35.0,29.53,WSW,255,5.0,8.0,95,0.00,,,0.48,,2013-02-12 07:21:00,
2013-02-12 02:32:00,35.0,34.0,29.52,WNW,286,5.0,8.0,95,0.00,,,0.48,,2013-02-12 07:32:00,
2013-02-12 02:42:00,35.0,34.0,29.52,WNW,286,5.0,8.0,95,0.00,,,0.48,,2013-02-12 07:42:00,
2013-02-12 02:51:00,35.0,34.0,29.52,West,279,4.0,7.0,95,0.00,,,0.48,,2013-02-12 07:51:00,
2013-02-12 03:01:00,35.0,34.0,29.52,WSW,248,5.0,8.0,95,0.00,,,0.48,,2013-02-12 08:01:00,
2013-02-12 03:11:00,35.0,34.0,29.52,WSW,248,5.0,8.0,95,0.00,,,0.48,,2013-02-12 08:11:00,
2013-02-12 03:21:00,35.0,34.0,29.51,West,260,5.0,10.0,95,0.00,,,0.48,,2013-02-12 08:21:00,
2013-02-12 03:32:00,34.0,33.0,29.51,West,277,7.0,11.0,95,0.00,,,0.48,,2013-02-12 08:32:00,
2013-02-12 03:42:00,34.0,33.0,29.51,West,277,7.0,11.0,95,0.00,,,0.48,,2013-02-12 08:42:00,
2013-02-12 03:52:00,34.0,33.0,29.50,NW,323,5.0,9.0,95,0.00,,,0.48,,2013-02-12 08:52:00,
2013-02-12 04:02:00,34.0,33.0,29.50,WNW,294,6.0,10.0,95,0.00,,,0.48,,2013-02-12 09:02:00,
2013-02-12 04:11:00,34.0,33.0,29.50,WNW,294,6.0,10.0,95,0.00,,,0.48,,2013-02-12 09:11:00,
2013-02-12 04:21:00,34.0,33.0,29.50,West,261,5.0,9.0,95,0.00,,,0.48,,2013-02-12 09:21:00,
2013-02-12 04:32:00,34.0,33.0,29.50,SW,227,4.0,7.0,95,0.00,,,0.48,,2013-02-12 09:32:00,
2013-02-12 04:42:00,34.0,33.0,29.51,SW,227,4.0,7.0,95,0.00,,,0.48,,2013-02-12 09:42:00,
2013-02-12 04:51:00,34.0,33.0,29.51,SW,227,4.0,7.0,95,0.00,,,0.48,,2013-02-12 09:51:00,
2013-02-12 05:01:00,34.0,33.0,29.51,SW,215,4.0,8.0,95,0.01,,,0.49,,2013-02-12 10:01:00,
2013-02-12 05:11:00,34.0,33.0,29.51,WSW,250,5.0,9.0,95,0.02,,,0.50,,2013-02-12 10:11:00,
2013-02-12 05:21:00,34.0,33.0,29.51,WSW,250,5.0,9.0,95,0.02,,,0.50,,2013-02-12 10:21:00,
2013-02-12 05:32:00,34.0,33.0,29.51,WNW,287,4.0,8.0,95,0.02,,,0.50,,2013-02-12 10:32:00,
2013-02-12 05:43:00,34.0,33.0,29.51,WNW,287,4.0,8.0,95,0.02,,,0.50,,2013-02-12 10:43:00,
2013-02-12 05:51:00,34.0,33.0,29.51,WNW,288,6.0,8.0,96,0.03,,,0.51,,2013-02-12 10:51:00,
2013-02-12 06:01:00,34.0,33.0,29.52,WNW,298,5.0,10.0,96,0.02,,,0.51,,2013-02-12 11:01:00,
2013-02-12 06:11:00,34.0,33.0,29.52,WNW,298,5.0,10.0,96,0.02,,,0.51,,2013-02-12 11:11:00,
2013-02-12 06:22:00,34.0,33.0,29.51,WNW,283,5.0,10.0,96,0.01,,,0.51,,2013-02-12 11:22:00,
2013-02-12 06:32:00,33.0,32.0,29.51,West,271,5.0,8.0,96,0.01,,,0.51,,2013-02-12 11:32:00,
2013-02-12 06:42:00,33.0,32.0,29.51,West,271,5.0,8.0,96,0.01,,,0.51,,2013-02-12 11:42:00,
2013-02-12 06:52:00,33.0,32.0,29.52,West,273,4.0,9.0,96,0.00,,,0.51,,2013-02-12 11:52:00,
2013-02-12 07:02:00,33.0,32.0,29.52,WSW,250,4.0,6.0,96,0.00,,,0.51,,2013-02-12 12:02:00,
2013-02-12 07:11:00,33.0,32.0,29.52,WNW,287,4.0,7.0,96,0.00,,,0.51,,2013-02-12 12:11:00,
2013-02-12 07:21:00,33.0,32.0,29.52,WNW,287,4.0,7.0,96,0.00,,,0.51,,2013-02-12 12:21:00,
2013-02-12 07:32:00,33.0,32.0,29.53,SW,231,3.0,6.0,96,0.00,,,0.51,,2013-02-12 12:32:00,
2013-02-12 07:42:00,33.0,32.0,29.53,SW,231,3.0,6.0,96,0.00,,,0.51,,2013-02-12 12:42:00,
2013-02-12 07:52:00,33.0,32.0,29.53,WSW,237,4.0,6.0,96,0.00,,,0.51,,2013-02-12 12:52:00,
2013-02-12 08:02:00,34.0,33.0,29.54,West,269,5.0,8.0,96,0.00,,,0.51,,2013-02-12 13:02:00,
2013-02-12 08:11:00,34.0,33.0,29.54,West,271,3.0,7.0,96,0.00,,,0.51,,2013-02-12 13:11:00,
2013-02-12 08:22:00,34.0,33.0,29.54,West,271,3.0,7.0,96,0.00,,,0.51,,2013-02-12 13:22:00,
2013-02-12 08:32:00,34.0,33.0,29.54,WNW,288,2.0,6.0,96,0.00,,,0.51,,2013-02-12 13:32:00,
2013-02-12 08:42:00,34.0,33.0,29.54,WNW,288,2.0,6.0,96,0.00,,,0.51,,2013-02-12 13:42:00,
2013-02-12 08:52:00,34.0,33.0,29.54,WSW,257,3.0,6.0,96,0.00,,,0.51,,2013-02-12 13:52:00,
2013-02-12 09:01:00,36.0,35.0,29.54,West,271,6.0,10.0,96,0.00,,,0.51,,2013-02-12 14:01:00,
2013-02-12 09:12:00,36.0,35.0,29.54,West,271,6.0,10.0,96,0.00,,,0.51,,2013-02-12 14:12:00,
2013-02-12 09:22:00,37.0,36.0,29.54,WSW,246,7.0,12.0,96,0.00,,,0.51,,2013-02-12 14:22:00,
2013-02-12 09:32:00,36.0,34.0,29.55,WSW,257,7.0,13.0,92,0.00,,,0.51,,2013-02-12 14:32:00,
2013-02-12 09:42:00,36.0,34.0,29.55,WSW,257,7.0,13.0,92,0.00,,,0.51,,2013-02-12 14:42:00,
2013-02-12 09:52:00,36.0,33.0,29.55,West,272,7.0,13.0,89,0.00,,,0.51,,2013-02-12 14:52:00,
2013-02-12 10:02:00,36.0,33.0,29.56,WSW,243,8.0,14.0,87,0.00,,,0.51,,2013-02-12 15:02:00,
2013-02-12 10:11:00,36.0,32.0,29.56,WNW,288,7.0,13.0,86,0.00,,,0.51,,2013-02-12 15:11:00,
2013-02-12 10:21:00,36.0,32.0,29.56,WNW,288,7.0,13.0,86,0.00,,,0.51,,2013-02-12 15:21:00,
2013-02-12 10:32:00,37.0,32.0,29.55,WSW,246,8.0,13.0,82,0.00,,,0.51,,2013-02-12 15:32:00,
2013-02-12 10:42:00,37.0,32.0,29.55,WSW,246,8.0,13.0,82,0.00,,,0.51,,2013-02-12 15:42:00,
2013-02-12 10:52:00,37.0,32.0,29.55,West,266,6.0,10.0,82,0.00,,,0.51,,2013-02-12 15:52:00,
2013-02-12 11:01:00,37.0,32.0,29.55,West,261,7.0,11.0,81,0.00,,,0.51,,2013-02-12 16:01:00,
2013-02-12 11:11:00,37.0,32.0,29.55,West,261,7.0,11.0,81,0.00,,,0.51,,2013-02-12 16:11:00,
2013-02-12 11:22:00,37.0,32.0,29.55,West,261,7.0,11.0,81,0.00,,,0.51,,2013-02-12 16:22:00,
2013-02-12 11:32:00,37.0,32.0,29.55,West,261,7.0,11.0,81,0.00,,,0.51,,2013-02-12 16:32:00,
2013-02-12 18:52:00,36.0,29.0,29.62,West,261,327.0,327.0,75,0.00,,,0.08,,2013-02-12 23:52:00,
2013-02-12 19:02:00,37.0,29.0,29.63,WSW,250,5.0,10.0,73,0.00,,,0.08,,2013-02-13 00:02:00,
2013-02-12 19:11:00,37.0,29.0,29.63,WSW,250,5.0,10.0,73,0.00,,,0.08,,2013-02-13 00:11:00,
2013-02-12 19:21:00,37.0,29.0,29.64,West,259,5.0,10.0,72,0.00,,,0.08,,2013-02-13 00:21:00,
2013-02-12 19:32:00,37.0,29.0,29.65,WSW,248,7.0,12.0,73,0.00,,,0.06,,2013-02-13 00:32:00,
2013-02-12 19:42:00,37.0,29.0,29.65,WSW,248,7.0,12.0,73,0.00,,,0.06,,2013-02-13 00:42:00,
2013-02-12 19:52:00,38.0,29.0,29.65,WSW,249,13.0,18.0,71,0.00,,,0.06,,2013-02-13 00:52:00,
2013-02-12 20:01:00,38.0,29.0,29.65,WNW,298,8.0,14.0,70,0.00,,,0.06,,2013-02-13 01:01:00,
2013-02-12 20:11:00,38.0,29.0,29.65,WNW,298,8.0,14.0,70,0.00,,,0.06,,2013-02-13 01:11:00,
2013-02-12 20:21:00,38.0,29.0,29.66,WSW,248,8.0,16.0,71,0.00,,,0.06,,2013-02-13 01:21:00,
2013-02-12 20:32:00,37.0,29.0,29.67,West,272,9.0,13.0,73,0.00,,,0.04,,2013-02-13 01:32:00,
2013-02-12 20:42:00,37.0,29.0,29.67,WSW,237,11.0,17.0,73,0.00,,,0.04,,2013-02-13 01:42:00,
2013-02-12 20:51:00,37.0,29.0,29.67,WSW,237,11.0,17.0,73,0.00,,,0.04,,2013-02-13 01:51:00,
2013-02-12 21:01:00,37.0,28.0,29.69,West,280,10.0,19.0,71,0.00,,,0.04,,2013-02-13 02:01:00,
2013-02-12 21:11:00,37.0,28.0,29.69,West,280,10.0,19.0,71,0.00,,,0.04,,2013-02-13 02:11:00,
2013-02-12 21:22:00,37.0,29.0,29.69,WNW,289,9.0,15.0,72,0.00,,,0.04,,2013-02-13 02:22:00,
2013-02-12 21:32:00,37.0,29.0,29.69,WSW,249,7.0,18.0,73,0.00,,,0.03,,2013-02-13 02:32:00,
2013-02-12 21:42:00,37.0,29.0,29.69,WSW,249,7.0,18.0,73,0.00,,,0.03,,2013-02-13 02:42:00,
2013-02-12 21:52:00,37.0,29.0,29.70,WSW,254,8.0,15.0,73,0.00,,,0.03,,2013-02-13 02:52:00,
2013-02-12 22:01:00,36.0,28.0,29.71,WSW,257,7.0,12.0,73,0.00,,,0.03,,2013-02-13 03:01:00,
2013-02-12 22:11:00,37.0,28.0,29.71,West,278,10.0,16.0,71,0.00,,,0.03,,2013-02-13 03:11:00,
2013-02-12 22:21:00,37.0,28.0,29.71,West,278,10.0,16.0,71,0.00,,,0.03,,2013-02-13 03:21:00,
2013-02-12 22:32:00,37.0,28.0,29.72,WSW,244,11.0,21.0,70,0.00,,,0.03,,2013-02-13 03:32:00,
2013-02-12 22:42:00,37.0,28.0,29.72,WSW,244,11.0,21.0,70,0.00,,,0.03,,2013-02-13 03:42:00,
2013-02-12 22:51:00,37.0,28.0,29.73,WSW,243,7.0,15.0,70,0.00,,,0.03,,2013-02-13 03:51:00,
2013-02-12 23:01:00,37.0,28.0,29.74,WSW,244,11.0,17.0,71,0.00,,,0.03,,2013-02-13 04:01:00,
2013-02-12 23:11:00,37.0,28.0,29.74,WSW,244,11.0,17.0,71,0.00,,,0.03,,2013-02-13 04:11:00,
2013-02-12 23:21:00,37.0,28.0,29.74,West,269,10.0,16.0,71,0.00,,,0.03,,2013-02-13 04:21:00,
2013-02-12 23:32:00,37.0,28.0,29.74,SW,221,7.0,12.0,71,0.00,,,0.03,,2013-02-13 04:32:00,
2013-02-12 23:42:00,37.0,28.0,29.74,SW,221,7.0,12.0,71,0.00,,,0.03,,2013-02-13 04:42:00,
2013-02-12 23:51:00,37.0,29.0,29.74,WSW,246,5.0,11.0,72,0.00,,,0.03,,2013-02-13 04:51:00,